Location: The Saddle
(36.8333°N, 80.3417°W)
Time: 05:59:07
(UTC-05:00)

S-56A Canister/Altair - Visible Passes

Search period start: 30 January 2023 00:00
Search period end: 09 February 2023 00:00
Orbit: 639 x 2493 km, 38.9° (Epoch: 29 January)

Date Brightness Start Highest point End Pass type
(mag) Time Alt. Az. Time Alt. Az. Time Alt. Az.
30 Jan 10.7 18:57:39 10° W 19:06:06 34° SW 19:17:28 10° SSE visible
31 Jan 10.6 18:24:50 10° W 18:32:56 37° SSW 18:44:09 10° SSE visible
31 Jan 11.8 20:34:58 10° WSW 20:37:59 11° SW 20:41:12 10° SSW visible
01 Feb 10.5 17:52:06 10° W 17:59:48 40° SSW 18:10:47 10° SSE visible
01 Feb 11.7 20:00:24 10° WSW 20:04:49 13° SW 20:09:45 10° SSW visible
02 Feb 11.7 19:26:34 10° WSW 19:31:40 15° SW 19:37:36 10° SSW visible
03 Feb 11.6 18:53:07 10° WSW 18:58:34 16° SW 19:05:06 10° S visible
04 Feb 11.5 18:19:54 10° WSW 18:25:30 18° SW 18:32:25 10° S visible
